the time You need

LOMBARDI, Elena

Elena LOMBARDI

KS Athlete ()

Nazionalitá:   --

Sesso:   Femminile

Pettorale:   354

Categoria:   OF

Società:   INDIVIDUALE

POS. ASSOLUTA

50°

Gara

Traversata Lago di Mergozzo

Percorso

2.3 Km - Femminile

Atleti arrivati

105

DETTAGLIO PRESTAZIONE

POSIZIONE ASSOLUTA 50°
TEMPO TOTALE 00:42:04.00
MEDIA 21,02
CATEGORIA OF
POSIZIONE CATEGORIA 42°

Intermedi

PRESTAZIONE A CONFRONTO
ASSOLUTO

Elena LOMBARDI NOME Lara Gherardini
50° POSIZIONE ASSOLUTA
00:42:04.00 TEMPO ASSOLUTO 00:27:44.20
21,02 MEDIA PRIMO ASSOLUTO 13,52

PRESTAZIONE A CONFRONTO
CATEGORIA

Elena LOMBARDI NOME Lara Gherardini
42° POSIZIONE CATEGORIA
00:42:04.00 TEMPO PRIMO DI CATEGORIA 00:27:44.20
21,02 MEDIA PRIMO CATEGORIA 13,52


 
Grafico Edizioni Precedenti
Risulta una sola edizione, grafico non disponibile.
 
Pos Anno Cat PosCat Sex PosSex Tempo Media RealTime
50 2016 OF 42 F 50 00:42:04.00 21,02 00:42:04.00
 

 
Team INDIVIDUALE
Pos Atleta Cat PosCat Tempo Media
GHERARDINI LARA OF 1 00:27:44.20 13,52
DAMNOTTI ALESSIA U14_F 1 00:27:46.90 13,53
BARONE ANNALISA NC 1 00:29:33.70 14,47
SAIBENE ELENA OF 4 00:32:05.40 16,03
10° NAVARINO LETIZIA OF 6 00:32:30.90 16,15
13° GARLICK REBECCA NC 3 00:33:56.50 16,58
14° PERONGINI ORNELLA OF 8 00:34:12.20 17,06
16° GIANOLIO ADRIANA OF 10 00:35:06.50 17,33
19° CAPRIOLI SILVIA OF 13 00:36:19.40 18,09
21° BARBIERI SARA OF 15 00:36:37.40 18,19
24° PALLARO VALENTINA OF 17 00:37:37.90 18,49
25° GALLAZZI ELENA OF 18 00:37:45.20 18,53
27° CIPRIANI CRISTINA OF 20 00:38:12.20 19,06
31° TENAGLIA LAURA OF 24 00:39:03.30 19,31
34° GHETTI MARIACHIARA OF 27 00:39:15.60 19,37
35° GONZALES ARIAS ARIANNA U14_F 5 00:39:19.00 19,39
36° GHIRINGHELLI GABRIELLA OF 28 00:39:19.20 19,39
37° TONDINI LAURA OF 29 00:39:26.10 19,43
38° CAPRA ILENIA OF 30 00:39:30.10 19,45
41° LIBERALI MARTA OF 33 00:40:12.80 20,06
42° FANCHINI ELENA OF 34 00:40:40.10 20,20
44° MATIZ ELISA OF 36 00:40:47.40 20,23
46° CARNELLI STEFANIA OF 38 00:41:14.70 20,37
47° SPREAFICO LAURA OF 39 00:41:31.80 20,45
48° DELL“ORO FRANCESCA OF 40 00:41:41.20 20,50
50° LOMBARDI ELENA OF 42 00:42:04.00 21,02
52° MILEO SARA OF 44 00:42:14.50 21,07
53° SCIENDRATE SIMONA NC 4 00:42:23.60 21,12
54° GIOVANNONI PINA OF 45 00:42:27.10 21,13
55° RONCOLETTA KATIA OF 46 00:42:49.10 21,24
56° POLUZZI AMBRA OF 47 00:42:50.30 21,25
57° LOTTI MARIA CRISTINA OF 48 00:42:58.20 21,29
59° BRUSTIA MARGHERITA OF 50 00:43:25.50 21,42
60° AUTIERI CRISTINA OF 51 00:43:41.90 21,50
64° MALIGHETTI LAURA ELISABETTA OF 55 00:44:22.40 22,11
67° BINDA ARIANNA OF 58 00:45:02.10 22,31
69° TRENTO VIRGINIA OF 60 00:45:17.30 22,38
71° BRUSTIA ANNALISA OF 62 00:45:23.70 22,42
73° SQUIZZATO SONIA OF 64 00:45:52.50 22,56
74° BRNIAZ MORENA OF 65 00:45:58.00 22,59
75° EVANGELISTA SAMUELA OF 66 00:46:10.70 23,05
76° RUGA ALESSANDRA OF 67 00:46:13.50 23,06
77° MITTINO PATRIZIA OF 68 00:46:19.60 23,09
80° VISCONTI SIMONA OF 71 00:47:48.80 23,54
81° GIORIA FEDERICA OF 72 00:47:49.50 23,54
82° PIGORINI ALESSANDRA OF 73 00:47:53.20 23,57
83° RAMPONI MARTINA U14_F 6 00:47:55.20 23,57
84° BATTISTELLA ELISA OF 74 00:48:20.60 24,10
86° TURANI MARIANNA OF 76 00:48:40.20 24,20
87° SANTAMBROGIO MARIA JACKELINE OF 77 00:48:48.50 24,24
88° RADU DELIA OF 78 00:49:16.10 24,38
89° ZAFFALON MARIA GRAZIA OF 79 00:49:50.00 24,55
90° MAURI MONICA NC 5 00:50:32.20 25,16
92° CIRILLO GIORGIA OF 81 00:51:50.10 25,55
93° LOMBARDI NATALIA NC 6 00:55:14.50 27,37
94° PRIBYTKOVA JULIA OF 82 00:55:47.80 27,53
96° FARINI CLAUDIA OF 84 00:57:33.70 28,46
97° TOUMANIAN IRINA OF 85 00:57:50.20 28,55
98° GRANDINETTI SARA OF 86 00:58:17.60 29,08
100° CATTANEO MARIA CARMEN NC 7 01:00:38.60 30,19
101° ZANETTI TERESINA OF 88 01:00:51.70 30,26
102° LANFRANCHI VALERIA OF 89 01:03:05.70 31,32
103° LOVATI CARLA OF 90 01:06:54.70 33,27
DNF ANGIOLINI AMBRA OF 0 - -
DNF MEREGALLI MARZIA OF 0 - -
 

ELENCO GARE VISUALIZZAZIONE ESTESA

Data
Evento
Posizione
Punti
Km
Sport